Showing default

NIMBUS 6, 7924

Orbit data source: Space-Track

NIMBUS 6, 7924 is a payload satellite owned by GSFC (US) in SSO that was launched on Thu, 12 Jun 1975 UTC via a DELTA 2910 launch vehicle from the Air Force Western Test Range (AFWTR). Payloads include a variety of satellites, spacecraft, and rockets equipped with specific instruments for various scientific and technological missions. These include communications satellites like Starlink; space stations such as the ISS; scientific satellites like the Hubble; Earth observation satellites from companies like Planet Labs, Umbra, and HawkEye 360; GPS; miniature CubeSats for education and research; and military/defense satellites.

Loading next visibility...
NIMBUS 6 details
Identifier
7924, 1975-052A
Orbit
SSO
Last TLE update7 hours ago
Origin
Flag of USGSFC (US)
ManufacturerGE/MSVD
MissionNon-operational Civil Weather
Bus & MotorNIMBUS, Unknown motor
Mass827 kg wet, 827 kg dry
Launch date (UTC)
1975-06-12 (50 years ago)
Launch vehicle
DELTA 2910
Launch site
Air Force Western Test Range (AFWTR)
Object type
Payload
Rocket body
Debris
Shape & HBRCone + 2 Pan, 3.35 m
Radar Cross Section2.947 m², Large (>1 m²)

Expand to show TLE details & history

TLE from 7 hours ago
0 NIMBUS 6
1 07924U 75052A   24361.27499422 -.00000009  00000-0  65193-4 0  9994
2 07924 100.0211 268.7016 0008552  82.8074  28.9633 13.40793809424047
Epoch: 2024-12-26T06:35Z
Definitive object data (Epoch: 2024-12-26T06:35:59.5Z)
Latitude66.17751°
Longitude-82.08893°
Altitude1,112.069 km
Speed7.305 km/s
True Right ascension07h 28m 39s
True Declination66° 03' 22"
Sunlit
Object was in full shadow at TLE epoch
Visualization TLE readout
Latitude31.99248°
Longitude68.42095°
Altitude1,106.142 km
Speed7.304 km/s
Apparent Right ascension20h 26m 43s
Apparent Declination-1° 04' 13"
Sunlit
Object is in daylight
Visualization observer readout
Local Sidereal Time12:43:49
Azimuth73.658° E
Elevation-20.17°
Doppler factor1
Orbital elements
Apogee altitude1,110.052 km
Perigee altitude1,097.256 km
Semi-major axis7,481.791 km
Eccentricity0.0008552
Inclination100.0211°
RAAN268.7016°
Arg. of periapsis82.8074°
True anomaly29.0108°
Mean anomaly28.9633°
Eccentric anomaly28.98705°
Mean motion3.35378 °/min
BSTAR0.000065193
Orbital period107.34 mins
Loading maneuver chart data...
Loading historical data...
Loading historical data...
Loading historical data...
Loading historical data...
Loading historical data...
Loading historical data...
Loading historical data...

NIMBUS 6 Visibility forecast

Observer location: undefined°, undefined

Span
Click to sort rows by Start time (UTC) header in descending order
Start Az.
Max El. time (UTC)
Max El. Az.
Max El.
End time (UTC)
End Az.
11 mins2024-12-26 16:55:09.681Z124.555° SE2024-12-26 17:01:09.681Z56.229° ENE29.3°2024-12-26 17:06:09.681Z4.178° NNE
11 mins2024-12-26 18:41:09.681Z195.683° SSW2024-12-26 18:46:09.681Z256.124° W33.656°2024-12-26 18:52:09.681Z328.809° NNW
10 mins2024-12-27 05:57:09.681Z43.033° NE2024-12-27 06:02:09.681Z101.262° ESE26.1°2024-12-27 06:07:09.681Z152.804° SSE
10 mins2024-12-27 07:43:09.681Z357.673° N2024-12-27 07:48:09.681Z282.576° WNW36.264°2024-12-27 07:53:09.681Z224.328° SW
|